Cloud_Cover
100 100 100 100 100 100 100 100 100 100 100 100 100 100 97 100 100 100 100 100 100 100
100 100 100 100 100 100 100 100 100 100 100 100 100 100 100 100 100 100 100 100 100 100
100 100 100 100 90 100 100 100 100 100 100 100 100 100 100 100 100 100 100 100 100 100
83 35 100 29 74 71 100 84 96 100 100 100 100 100 100 100 100 100 100 100 100 100
56 12 87 88 92 100 100 62 83 98 98 100 92 100 100 100 100 100 100 100 100 100
17 23 89 93 100 99 97 76 98 92 100 100 100 100 100 100 100 100 93 100 100 100
72 76 56 77 78 90 28 5 5 39 70 27 94 21 100 100 100 100 100 100 99 100
38 63 63 6 4 2 1 4 76 96 76 17 31 71 97 100 100 100 100 100 100 100
11 46 21 20 0 0 4 1 0 0 0 0 3 100 88 100 100 100 100 100 100 100
83 100 86 5 0 5 3 0 0 0 0 0 5 50 100 100 100 100 100 100 100 100
100 100 34 7 21 12 4 0 0 0 0 0 1 5 98 100 100 100 98 58 80 80
100 47 52 93 12 8 26 1 0 0 0 1 4 13 98 100 77 73 97 100 100 100
100 100 70 72 100 45 5 0 2 12 42 17 13 65 100 98 9 10 32 47 94 98
100 100 100 100 94 5 4 2 27 84 97 47 27 23 100 100 100 17 6 40 80 100